CW4086 Weather Reports


time (UTC)temp
F
wind
direction
speed
knots
gust
knots
rain 1hr
in
rain 24hr
in
rain mn
in
humidity
%
barometer
mb
20200531074604 56 257 0.0 0.0 0.00 0.00 0.00 71 1014.2
20200531074104 56 257 0.0 0.0 0.00 0.00 0.00 71 1014.2
20200531073604 56 257 0.0 0.0 0.00 0.00 0.00 71 1014.2
20200531073104 56 257 0.0 0.0 0.00 0.00 0.00 70 1014.2
20200531072604 57 257 0.0 0.0 0.00 0.00 0.00 70 1014.2
20200531072104 57 257 0.0 0.0 0.00 0.00 0.00 70 1014.2
20200531071606 57 257 0.0 0.0 0.00 0.00 0.00 70 1014.2
20200531071104 57 257 0.0 0.0 0.00 0.00 0.00 70 1014.2
20200531070604 57 257 0.0 0.0 0.00 0.00 0.00 70 1014.2
20200531070104 57 257 0.0 0.0 0.00 0.00 0.00 69 1014.2
20200531065603 57 257 0.0 0.0 0.00 0.00 0.00 69 1014.2
20200531065104 58 257 0.0 0.0 0.00 0.00 0.00 69 1014.2
20200531064603 58 257 0.0 0.0 0.00 0.00 0.00 69 1014.2
20200531064104 58 257 0.0 0.0 0.00 0.00 0.00 69 1014.2
20200531063603 59 257 0.0 0.0 0.00 0.00 0.00 68 1014.2
20200531063104 59 257 0.0 0.0 0.00 0.00 0.00 68 1014.2
20200531062604 59 257 0.0 0.0 0.00 0.00 0.00 68 1014.2
20200531062106 59 257 0.0 0.0 0.00 0.00 0.00 68 1014.3
20200531061606 59 257 0.0 0.0 0.00 0.00 0.00 68 1014.5
20200531061104 59 257 0.0 0.0 0.00 0.00 0.00 67 1014.6
20200531060604 59 257 0.0 0.0 0.00 0.00 0.00 67 1014.7
20200531060104 59 257 0.0 0.0 0.00 0.00 0.00 67 1014.7
20200531055603 59 257 0.0 0.0 0.00 0.00 0.00 67 1014.7
20200531055104 59 257 0.0 0.0 0.00 0.00 0.00 66 1014.8
20200531054604 60 257 0.0 0.0 0.00 0.00 0.00 66 1014.8
20200531054104 60 257 0.0 0.0 0.00 0.00 0.00 66 1014.8
20200531053604 60 257 0.0 0.0 0.00 0.00 0.00 66 1014.9
20200531053104 60 257 0.0 0.0 0.00 0.00 0.00 66 1014.8
20200531052603 60 257 0.0 0.0 0.00 0.00 0.00 65 1014.9
20200531052104 60 257 0.0 0.0 0.00 0.00 0.00 65 1014.9
20200531051605 61 257 0.0 0.0 0.00 0.00 0.00 65 1014.9
20200531051104 61 257 0.0 0.0 0.00 0.00 0.00 65 1014.8
20200531050604 61 257 0.0 0.0 0.00 0.00 0.00 64 1014.8
20200531050104 61 257 0.0 0.0 0.00 0.00 0.00 64 1014.7
20200531045604 61 257 0.0 0.0 0.00 0.00 0.00 64 1014.7
20200531045104 61 257 0.0 0.0 0.00 0.00 0.00 64 1014.7
20200531044604 61 257 0.0 0.0 0.00 0.00 0.00 64 1014.7
20200531044104 62 257 0.0 0.0 0.00 0.00 0.00 63 1014.7
20200531043603 62 257 0.0 0.0 0.00 0.00 0.00 62 1014.7
20200531043104 62 257 0.0 0.0 0.00 0.00 0.00 62 1014.7
20200531042604 62 257 0.0 0.0 0.00 0.00 0.00 61 1014.6
20200531042103 63 261 0.0 2.6 0.00 0.00 0.00 59 1014.6
20200531041606 63 261 0.0 5.2 0.00 0.00 0.00 58 1014.5
20200531041104 63 259 0.9 5.2 0.00 0.00 0.00 58 1014.4
20200531040604 63 239 1.7 5.2 0.00 0.00 0.00 57 1014.4
20200531040104 63 267 1.7 5.2 0.00 0.00 0.00 57 1014.3
20200531035603 64 271 1.7 6.1 0.00 0.00 0.00 56 1014.2
20200531035104 64 259 2.6 6.1 0.00 0.00 0.00 56 1014.2
20200531034604 64 258 2.6 6.1 0.00 0.00 0.00 56 1014.2
20200531034104 64 274 2.6 6.1 0.00 0.00 0.00 56 1014.2
20200531033604 64 263 1.7 6.1 0.00 0.00 0.00 56 1014.1
20200531033104 65 217 0.9 2.6 0.00 0.00 0.00 55 1014.1
20200531032604 65 223 0.0 0.0 0.00 0.00 0.00 54 1014.0
20200531032104 65 228 0.0 0.0 0.00 0.00 0.00 55 1014.0
20200531031606 66 241 0.0 0.0 0.00 0.00 0.00 54 1014.0
20200531031103 66 245 0.0 0.0 0.00 0.00 0.00 54 1014.0
20200531030604 66 231 0.0 0.0 0.00 0.00 0.00 53 1013.8
20200531030104 67 225 0.0 0.0 0.00 0.00 0.00 52 1013.6
20200531025603 67 223 0.0 0.0 0.00 0.00 0.00 51 1013.5
20200531025104 68 227 0.0 0.0 0.00 0.00 0.00 50 1013.4
20200531024603 68 224 0.0 0.0 0.00 0.00 0.00 50 1013.4
20200531024103 69 224 0.0 0.0 0.00 0.00 0.00 50 1013.4
20200531023604 69 224 0.0 0.0 0.00 0.00 0.00 49 1013.4
20200531023104 69 213 0.0 2.6 0.00 0.00 0.00 48 1013.4
20200531022604 70 213 0.9 4.3 0.00 0.00 0.00 48 1013.4
20200531022104 70 214 0.9 4.3 0.00 0.00 0.00 47 1013.4
20200531021605 70 209 0.0 8.7 0.00 0.00 0.00 46 1013.4
20200531021104 71 185 2.6 8.7 0.00 0.00 0.00 44 1013.4
20200531020604 72 213 1.7 6.1 0.00 0.00 0.00 43 1013.4
20200531020104 73 216 2.6 6.1 0.00 0.00 0.00 43 1013.3
20200531015604 73 192 0.9 6.1 0.00 0.00 0.00 43 1013.2
20200531015104 73 207 2.6 6.1 0.00 0.00 0.00 43 1013.2
20200531014604 74 194 2.6 6.1 0.00 0.00 0.00 43 1013.2
20200531014104 74 209 2.6 7.0 0.00 0.00 0.00 43 1013.1
20200531013603 75 233 2.6 10.4 0.00 0.00 0.00 42 1013.0
20200531013104 75 220 1.7 10.4 0.00 0.00 0.00 41 1012.9
20200531012603 76 227 3.5 10.4 0.00 0.00 0.00 42 1012.9
20200531012104 75 247 1.7 8.7 0.00 0.00 0.00 43 1012.9
20200531011605 76 219 2.6 8.7 0.00 0.00 0.00 42 1012.8
20200531011104 76 243 3.5 8.7 0.00 0.00 0.00 43 1012.9
20200531010603 76 220 1.7 7.8 0.00 0.00 0.00 42 1012.9
20200531010105 76 225 1.7 10.4 0.00 0.00 0.00 44 1012.9
20200531005603 77 211 4.3 11.3 0.00 0.00 0.00 42 1013.0
20200531005104 78 236 2.6 11.3 0.00 0.00 0.00 42 1013.0
20200531004604 78 253 2.6 10.4 0.00 0.00 0.00 42 1012.9
20200531004104 78 224 3.5 8.7 0.00 0.00 0.00 40 1013.0
20200531003604 78 231 2.6 11.3 0.00 0.00 0.00 40 1012.9
20200531003104 78 221 1.7 11.3 0.00 0.00 0.00 42 1012.9
20200531002603 78 247 3.5 11.3 0.00 0.00 0.00 41 1012.9
20200531002103 78 257 4.3 8.7 0.00 0.00 0.00 42 1013.0
20200531001605 79 223 1.7 7.0 0.00 0.00 0.00 42 1012.9
20200531001104 79 240 1.7 8.7 0.00 0.00 0.00 42 1012.9
20200531000603 78 246 3.5 10.4 0.00 0.00 0.00 41 1013.0
20200531000104 78 204 3.5 10.4 0.00 0.00 0.00 42 1013.0
20200530235603 79 213 2.6 10.4 0.00 0.00 0.00 41 1013.1
20200530235104 79 227 3.5 10.4 0.00 0.00 0.00 41 1013.1
20200530234604 79 199 2.6 10.4 0.00 0.00 0.00 41 1013.3
20200530234104 80 239 4.3 10.4 0.00 0.00 0.00 39 1013.2
20200530233603 80 205 2.6 10.4 0.00 0.00 0.00 37 1013.4
20200530233103 81 225 4.3 7.8 0.00 0.00 0.00 35 1013.3
20200530232604 81 265 2.6 7.8 0.00 0.00 0.00 36 1013.4
20200530232103 81 225 3.5 11.3 0.00 0.00 0.00 35 1013.4
20200530231605 81 255 2.6 11.3 0.00 0.00 0.00 31 1013.5
20200530231103 81 266 3.5 8.7 0.00 0.00 0.00 29 1013.5
20200530230604 81 271 2.6 7.0 0.00 0.00 0.00 25 1013.5
20200530230104 82 266 0.9 8.7 0.00 0.00 0.00 24 1013.5
20200530225603 82 289 2.6 8.7 0.00 0.00 0.00 24 1013.6
20200530225104 82 246 1.7 10.4 0.00 0.00 0.00 26 1013.5
20200530224603 81 236 2.6 10.4 0.00 0.00 0.00 26 1013.5
20200530224103 81 269 2.6 7.8 0.00 0.00 0.00 26 1013.5
20200530223603 81 246 2.6 7.0 0.00 0.00 0.00 26 1013.5
20200530223104 82 275 3.5 7.0 0.00 0.00 0.00 24 1013.6
20200530222604 82 217 2.6 7.0 0.00 0.00 0.00 25 1013.6
20200530222104 81 255 0.9 6.1 0.00 0.00 0.00 28 1013.6
20200530221606 81 220 2.6 6.1 0.00 0.00 0.00 26 1013.7
20200530221104 81 241 1.7 4.3 0.00 0.00 0.00 28 1013.8
20200530220604 80 212 0.0 6.1 0.00 0.00 0.00 26 1013.9
20200530220104 80 222 2.6 6.1 0.00 0.00 0.00 27 1014.0
20200530215603 80 265 2.6 6.1 0.00 0.00 0.00 25 1014.1
20200530215104 80 201 1.7 6.1 0.00 0.00 0.00 25 1014.1
20200530214604 80 266 2.6 6.1 0.00 0.00 0.00 24 1014.1
20200530214104 80 221 2.6 5.2 0.00 0.00 0.00 26 1014.1
20200530213604 80 229 1.7 5.2 0.00 0.00 0.00 28 1014.1
20200530213103 80 231 2.6 7.8 0.00 0.00 0.00 28 1014.1
20200530212604 80 262 3.5 7.8 0.00 0.00 0.00 28 1014.1
20200530212104 79 335 0.0 4.3 0.00 0.00 0.00 27 1014.1
20200530211605 79 260 1.7 5.2 0.00 0.00 0.00 28 1014.1
20200530211104 78 238 0.9 7.0 0.00 0.00 0.00 29 1014.3
20200530210604 78 268 2.6 7.0 0.00 0.00 0.00 30 1014.5
20200530210104 78 275 0.9 6.1 0.00 0.00 0.00 30 1014.5
20200530205604 77 290 1.7 6.1 0.00 0.00 0.00 28 1014.6
20200530205104 77 252 1.7 7.8 0.00 0.00 0.00 31 1014.6
20200530204603 77 262 2.6 7.8 0.00 0.00 0.00 32 1014.7
20200530204104 77 277 2.6 4.3 0.00 0.00 0.00 30 1014.6
20200530203603 77 233 0.0 2.6 0.00 0.00 0.00 34 1014.6
20200530203104 77 213 0.9 5.2 0.00 0.00 0.00 35 1014.6
20200530202604 76 227 2.6 5.2 0.00 0.00 0.00 33 1014.6
20200530202104 76 259 0.0 2.6 0.00 0.00 0.00 41 1014.6
20200530201605 76 270 0.0 2.6 0.00 0.00 0.00 42 1014.6
20200530201104 75 298 0.0 2.6 0.00 0.00 0.00 41 1014.7
20200530200604 75 279 0.0 4.3 0.00 0.00 0.00 43 1014.9
20200530200105 74 268 0.9 6.1 0.00 0.00 0.00 41 1014.9
20200530195604 73 264 0.9 6.1 0.00 0.00 0.00 42 1014.9
20200530195104 73 255 0.9 6.1 0.00 0.00 0.00 44 1015.0
20200530194604 73 250 0.0 0.0 0.00 0.00 0.00 44 1015.0
20200530194104 73 259 0.0 0.0 0.00 0.00 0.00 48 1015.1
20200530193604 72 265 0.0 0.0 0.00 0.00 0.00 44 1015.2
20200530193104 72 265 0.0 0.0 0.00 0.00 0.00 44 1015.3
20200530192605 72 264 0.0 0.0 0.00 0.00 0.00 44 1015.2
20200530192104 72 250 0.0 0.0 0.00 0.00 0.00 44 1015.3
20200530191604 72 248 0.0 2.6 0.00 0.00 0.00 46 1015.4
20200530191106 71 247 0.0 4.3 0.00 0.00 0.00 50 1015.6
20200530190603 70 243 0.9 4.3 0.00 0.00 0.00 49 1015.6
20200530190104 70 269 0.9 4.3 0.00 0.00 0.00 47 1015.5
20200530185603 70 244 0.0 0.0 0.00 0.00 0.00 50 1015.6
20200530185103 70 243 0.0 1.7 0.00 0.00 0.00 50 1015.6
20200530184604 69 241 0.0 5.2 0.00 0.00 0.00 51 1015.5
20200530184104 69 233 0.9 5.2 0.00 0.00 0.00 50 1015.5
20200530183603 70 237 0.0 2.6 0.00 0.00 0.00 50 1015.5
20200530183104 70 267 0.9 6.1 0.00 0.00 0.00 49 1015.6
20200530182603 70 263 1.7 6.1 0.00 0.00 0.00 49 1015.6
20200530182103 70 269 0.0 4.3 0.00 0.00 0.00 49 1015.5
20200530181603 70 260 0.0 0.9 0.00 0.00 0.00 56 1015.5
20200530181105 70 260 0.0 2.6 0.00 0.00 0.00 52 1015.5
20200530180604 70 261 0.0 2.6 0.00 0.00 0.00 55 1015.5
20200530180104 69 265 0.0 2.6 0.00 0.00 0.00 58 1015.5
20200530175603 69 265 0.9 2.6 0.00 0.00 0.00 57 1015.4
20200530175104 69 271 1.7 2.6 0.00 0.00 0.00 58 1015.4
20200530174605 68 244 0.9 5.2 0.00 0.00 0.00 60 1015.4
20200530174103 68 262 0.9 5.2 0.00 0.00 0.00 60 1015.4
20200530173603 67 248 0.0 4.3 0.00 0.00 0.00 64 1015.3
20200530173105 67 262 1.7 4.3 0.00 0.00 0.00 62 1015.2
20200530172604 67 221 1.7 4.3 0.00 0.00 0.00 62 1015.3
20200530172104 67 220 0.9 2.6 0.00 0.00 0.00 62 1015.1
20200530171605 67 186 0.0 0.0 0.00 0.00 0.00 65 1015.2
20200530171106 66 184 0.0 0.0 0.00 0.00 0.00 65 1015.3
20200530170603 66 171 0.0 2.6 0.00 0.00 0.00 63 1015.2
20200530170104 66 136 0.9 2.6 0.00 0.00 0.00 64 1015.2
20200530165604 66 269 0.0 2.6 0.00 0.00 0.00 65 1015.1
20200530165104 66 269 1.7 2.6 0.00 0.00 0.00 63 1015.2
20200530164604 66 214 0.0 0.0 0.00 0.00 0.00 66 1015.2
20200530164104 66 209 0.0 0.0 0.00 0.00 0.00 66 1015.3
20200530163604 66 208 0.0 0.0 0.00 0.00 0.00 68 1015.3
20200530163103 65 207 0.0 0.0 0.00 0.00 0.00 67 1015.4
20200530162604 65 207 0.0 0.0 0.00 0.00 0.00 67 1015.4
20200530162104 65 206 0.0 0.0 0.00 0.00 0.00 67 1015.5
20200530161604 65 200 0.0 0.0 0.00 0.00 0.00 69 1015.5
20200530161106 64 269 0.0 0.0 0.00 0.00 0.00 71 1015.5
20200530160604 64 269 0.0 0.0 0.00 0.00 0.00 69 1015.5
20200530160104 64 269 0.0 2.6 0.00 0.00 0.00 71 1015.5
20200530155604 64 271 0.0 2.6 0.00 0.00 0.00 71 1015.6
20200530155104 63 261 0.9 4.3 0.00 0.00 0.00 72 1015.6
20200530154603 63 267 0.0 4.3 0.00 0.00 0.00 73 1015.8
20200530154104 63 259 1.7 6.1 0.00 0.00 0.00 73 1015.7
20200530153603 62 251 0.9 7.0 0.00 0.00 0.00 75 1015.7
20200530153104 62 263 2.6 7.0 0.00 0.00 0.00 75 1015.5
20200530152604 61 182 0.0 0.0 0.00 0.00 0.00 75 1015.5
20200530152104 61 165 0.0 0.0 0.00 0.00 0.00 75 1015.5
20200530151604 61 155 0.0 0.0 0.00 0.00 0.00 75 1015.5
20200530151105 60 155 0.0 0.0 0.00 0.00 0.00 75 1015.5
20200530150603 60 154 0.0 0.0 0.00 0.00 0.00 75 1015.5
20200530150104 60 154 0.0 0.0 0.00 0.00 0.00 76 1015.5
20200530145604 60 153 0.0 0.0 0.00 0.00 0.00 75 1015.4
20200530145104 60 128 0.0 0.0 0.00 0.00 0.00 75 1015.3
20200530144604 60 128 0.0 0.0 0.00 0.00 0.00 74 1015.1
20200530144104 59 128 0.0 0.0 0.00 0.00 0.00 74 1015.0
20200530143604 59 128 0.0 0.0 0.00 0.00 0.00 74 1015.0
20200530143104 59 128 0.0 2.6 0.00 0.00 0.00 74 1015.0
20200530142603 59 128 0.0 2.6 0.00 0.00 0.00 74 1015.0
20200530142103 59 127 0.0 2.6 0.00 0.00 0.00 75 1015.0
20200530141603 59 125 0.9 2.6 0.00 0.00 0.00 76 1015.0
20200530141105 59 144 0.9 2.6 0.00 0.00 0.00 76 1014.9
20200530140604 59 242 0.0 1.7 0.00 0.00 0.00 76 1015.0
20200530140104 59 243 0.0 0.9 0.00 0.00 0.00 77 1014.9
20200530135603 58 243 0.0 1.7 0.00 0.00 0.00 78 1014.9
20200530135104 58 243 0.0 1.7 0.00 0.00 0.00 78 1014.9
20200530134603 58 257 0.0 0.0 0.00 0.00 0.00 79 1014.9
20200530134103 58 257 0.0 0.0 0.00 0.00 0.00 80 1015.0
20200530133603 58 257 0.0 0.0 0.00 0.00 0.00 80 1015.0
20200530133104 58 258 0.0 0.0 0.00 0.00 0.00 80 1015.0
20200530132604 58 258 0.0 0.0 0.00 0.00 0.00 80 1015.0
20200530132104 58 258 0.0 0.0 0.00 0.00 0.00 80 1015.0
20200530131604 58 258 0.0 0.0 0.00 0.00 0.00 80 1015.1
20200530131103 58 258 0.0 0.0 0.00 0.00 0.00 81 1015.1
20200530130605 58 258 0.0 0.0 0.00 0.00 0.00 81 1015.1
20200530130104 58 258 0.0 0.0 0.00 0.00 0.00 81 1015.2
20200530125604 58 258 0.0 0.0 0.00 0.00 0.00 81 1015.1
20200530125103 58 258 0.0 0.0 0.00 0.00 0.00 81 1015.0
20200530124604 58 258 0.0 0.0 0.00 0.00 0.00 82 1015.0
20200530124104 58 258 0.0 0.0 0.00 0.00 0.00 82 1014.9
20200530123604 58 258 0.0 0.0 0.00 0.00 0.00 82 1014.9
20200530123104 58 258 0.0 0.0 0.00 0.00 0.00 82 1014.9
20200530122604 58 258 0.0 0.0 0.00 0.00 0.00 83 1014.9
20200530122104 58 258 0.0 0.0 0.00 0.00 0.00 83 1014.7
20200530121604 58 258 0.0 0.0 0.00 0.00 0.00 83 1014.7
20200530121103 58 258 0.0 0.0 0.00 0.00 0.00 83 1014.6
20200530120604 58 258 0.0 0.0 0.00 0.00 0.00 83 1014.6
20200530120104 58 258 0.0 0.0 0.00 0.00 0.00 83 1014.5
20200530115604 58 258 0.0 0.0 0.00 0.00 0.00 83 1014.5
20200530115104 58 258 0.0 0.0 0.00 0.00 0.00 83 1014.5
20200530114604 58 258 0.0 0.0 0.00 0.00 0.00 83 1014.5
20200530114103 58 258 0.0 0.0 0.00 0.00 0.00 84 1014.4
20200530113604 58 258 0.0 0.0 0.00 0.00 0.00 84 1014.5
20200530113104 58 258 0.0 0.0 0.00 0.00 0.00 84 1014.6
20200530112603 58 258 0.0 0.0 0.00 0.00 0.00 84 1014.5
20200530112103 58 258 0.0 0.0 0.00 0.00 0.00 84 1014.4
20200530111604 58 258 0.0 0.0 0.00 0.00 0.00 84 1014.4
20200530111104 58 259 0.0 0.0 0.00 0.00 0.00 85 1014.5
20200530110604 58 259 0.0 0.0 0.00 0.00 0.00 85 1014.4
20200530110105 59 259 0.0 0.0 0.00 0.00 0.00 85 1014.4
20200530105604 59 259 0.0 0.0 0.00 0.00 0.00 85 1014.4
20200530105104 59 259 0.0 0.0 0.00 0.00 0.00 85 1014.4
20200530104604 59 259 0.0 0.0 0.00 0.00 0.00 85 1014.4
20200530104104 59 259 0.0 0.0 0.00 0.00 0.00 85 1014.4
20200530103604 59 259 0.0 0.0 0.00 0.00 0.00 85 1014.6
20200530103104 59 259 0.0 0.0 0.00 0.00 0.00 85 1014.5
20200530102604 59 259 0.0 0.0 0.00 0.00 0.00 85 1014.5
20200530102104 59 259 0.0 0.0 0.00 0.00 0.00 85 1014.6
20200530101603 59 259 0.0 0.0 0.00 0.00 0.00 85 1014.8
20200530101104 59 259 0.0 0.0 0.00 0.00 0.00 85 1014.9
20200530100604 58 259 0.0 0.0 0.00 0.00 0.00 85 1014.9
20200530100105 58 259 0.0 2.6 0.00 0.00 0.00 85 1014.9
20200530095604 58 259 0.0 2.6 0.00 0.00 0.00 85 1014.9
20200530095104 58 259 0.9 1.7 0.00 0.00 0.00 85 1014.9
20200530094604 58 259 0.0 2.6 0.00 0.00 0.00 85 1014.9
20200530094104 58 259 0.9 2.6 0.00 0.00 0.00 85 1014.9
20200530093603 58 254 0.9 2.6 0.00 0.00 0.00 85 1014.9
20200530093104 58 252 1.7 4.3 0.00 0.00 0.00 85 1014.9
20200530092604 59 239 1.7 4.3 0.00 0.00 0.00 85 1014.9
20200530092104 59 257 0.9 4.3 0.00 0.00 0.00 85 1014.9
20200530091603 59 260 1.7 4.3 0.00 0.00 0.00 85 1014.9
20200530091104 59 256 1.7 4.3 0.00 0.00 0.00 85 1014.9
20200530090604 59 272 0.9 2.6 0.00 0.00 0.00 85 1014.8
20200530090104 59 272 0.9 2.6 0.00 0.00 0.00 85 1014.8
20200530085603 59 274 0.0 2.6 0.00 0.00 0.00 85 1014.8
20200530085103 59 274 0.9 2.6 0.00 0.00 0.00 85 1014.8
20200530084604 58 274 0.0 0.9 0.00 0.00 0.00 84 1014.8
20200530084104 59 274 0.0 0.9 0.00 0.00 0.00 84 1014.9
20200530083604 59 274 0.0 0.0 0.00 0.00 0.00 84 1014.9
20200530083104 59 274 0.0 0.0 0.00 0.00 0.00 84 1014.9
20200530082604 59 274 0.0 0.0 0.00 0.00 0.00 84 1015.2
20200530082104 60 274 0.0 0.0 0.00 0.00 0.00 84 1015.3
20200530081604 60 274 0.0 0.0 0.00 0.00 0.00 84 1015.4
20200530081103 60 274 0.0 0.0 0.00 0.00 0.00 83 1015.6
20200530080604 60 274 0.0 0.0 0.00 0.00 0.00 83 1015.8
20200530080104 60 274 0.0 0.0 0.00 0.00 0.00 83 1015.9
20200530075604 60 274 0.0 0.0 0.00 0.00 0.00 83 1015.9
20200530075104 60 274 0.0 0.0 0.00 0.00 0.00 83 1015.9